,,Stat5,,Stat1,,Stat2,,Stat3,,Stat4,,Wind1,,Wind1,
time,status,PA1M_AVG,status,PR1M_SUM,status,RH1M_AVG,status,SR1M_AVG,status,TA1M_AVG,status,W1dAve1m,status,W1sAve1m,
2000-11-25, 00:00:00,VALID,916.39,VALID,0,VALID,99.0758,VALID,-0.0849042,VALID,19.215,VALID,251,VALID,0.000633446,
2000-11-25, 00:01:00,VALID,916.376,VALID,0,VALID,99.086,VALID,-0.0679233,VALID,19.2123,VALID,168,VALID,0.716947,
2000-11-25, 00:02:00,VALID,916.344,VALID,0,VALID,99.0961,VALID,-0.0849042,VALID,19.2024,VALID,108,VALID,0.823718,
2000-11-25, 00:03:00,VALID,916.313,VALID,0,VALID,99.1165,VALID,-0.0169808,VALID,19.2081,VALID,94,VALID,0.535256,
2000-11-25, 00:04:00,VALID,916.307,VALID,0,VALID,99.1012,VALID,0,VALID,19.2014,VALID,97,VALID,0.611225,
2000-11-25, 00:05:00,VALID,916.282,VALID,0,VALID,99.1127,VALID,0,VALID,19.2009,VALID,69,VALID,0.67488,
2000-11-25, 00:06:00,VALID,916.25,VALID,0,VALID,99.1241,VALID,0,VALID,19.1947,VALID,131,VALID,0.416518,
2000-11-25, 00:07:00,VALID,916.24,VALID,0,VALID,99.1139,VALID,0.0339617,VALID,19.1915,VALID,90,VALID,0.337695,
2000-11-25, 00:08:00,VALID,916.225,VALID,0,VALID,99.1292,VALID,0.0339617,VALID,19.1845,VALID,208,VALID,0.699436,
2000-11-25, 00:09:00,VALID,916.23,VALID,0,VALID,99.1356,VALID,0.0679233,VALID,19.1815,VALID,243,VALID,0.621745,
2000-11-25, 00:10:00,VALID,916.251,VALID,0,VALID,99.1508,VALID,0.0509425,VALID,19.1843,VALID,208,VALID,0.232686,
2000-11-25, 00:11:00,VALID,916.236,VALID,0,VALID,99.1635,VALID,0.0679233,VALID,19.188,VALID,124,VALID,0.721423,
2000-11-25, 00:12:00,VALID,916.243,VALID,0,VALID,99.1496,VALID,0,VALID,19.1877,VALID,106,VALID,0.458826,
2000-11-25, 00:13:00,VALID,916.274,VALID,0,VALID,99.1356,VALID,0.0679233,VALID,19.1813,VALID,55,VALID,1.21009,
2000-11-25, 00:14:00,VALID,916.269,VALID,0,VALID,99.1406,VALID,0.0679233,VALID,19.1713,VALID,301,VALID,0.841071,
2000-11-25, 00:15:00,VALID,916.297,VALID,0,VALID,99.1139,VALID,0.0509425,VALID,19.1974,VALID,41,VALID,0.699219,
2000-11-25, 00:16:00,VALID,916.255,VALID,0,VALID,99.0427,VALID,0.0339617,VALID,19.2655,VALID,18,VALID,0.892314,
2000-11-25, 00:17:00,VALID,916.239,VALID,0,VALID,98.9258,VALID,0.0169808,VALID,19.3204,VALID,297,VALID,0.720465,
2000-11-25, 00:18:00,VALID,916.181,VALID,0,VALID,98.7884,VALID,0.0339617,VALID,19.3433,VALID,55,VALID,1.01934,
2000-11-25, 00:19:00,VALID,916.137,VALID,0,VALID,98.6053,VALID,0.0339617,VALID,19.3627,VALID,74,VALID,0.965255,
2000-11-25, 00:20:00,VALID,916.132,VALID,0,VALID,98.4565,VALID,0.0169808,VALID,19.3624,VALID,173,VALID,0.420025,
2000-11-25, 00:21:00,VALID,916.098,VALID,0,VALID,98.1806,VALID,0.0169808,VALID,19.3843,VALID,318,VALID,1.5418,
2000-11-25, 00:22:00,VALID,916.086,VALID,0,VALID,97.5728,VALID,0,VALID,19.4887,VALID,286,VALID,1.34095,
2000-11-25, 00:23:00,VALID,916.079,VALID,0,VALID,96.9548,VALID,0.0169808,VALID,19.5531,VALID,292,VALID,1.08281,
2000-11-25, 00:24:00,VALID,916.067,VALID,0,VALID,96.4118,VALID,0.0169808,VALID,19.5946,VALID,315,VALID,0.769336,
2000-11-25, 00:25:00,VALID,916.031,VALID,0,VALID,96.0036,VALID,0.0679233,VALID,19.65,VALID,300,VALID,0.903646,
2000-11-25, 00:26:00,VALID,916.023,VALID,0.2,VALID,95.617,VALID,0,VALID,19.6726,VALID,282,VALID,1.26541,
2000-11-25, 00:27:00,VALID,915.959,VALID,0,VALID,95.3538,VALID,0.0169808,VALID,19.695,VALID,297,VALID,1.0651,
2000-11-25, 00:28:00,VALID,915.946,VALID,0,VALID,95.4988,VALID,0.0169808,VALID,19.7047,VALID,355,VALID,0.422081,
2000-11-25, 00:29:00,VALID,915.922,VALID,0,VALID,95.6247,VALID,0,VALID,19.6724,VALID,294,VALID,0.344161,
2000-11-25, 00:30:00,VALID,915.909,VALID,0,VALID,95.823,VALID,0.0679233,VALID,19.6368,VALID,259,VALID,0.469595,
2000-11-25, 00:31:00,VALID,915.927,VALID,0,VALID,96.0634,VALID,0.0339617,VALID,19.6045,VALID,314,VALID,0.223524,
2000-11-25, 00:32:00,VALID,915.892,VALID,0,VALID,96.2745,VALID,0.0339617,VALID,19.5655,VALID,318,VALID,0.408784,
2000-11-25, 00:33:00,VALID,915.928,VALID,0,VALID,96.1905,VALID,0.0339617,VALID,19.5498,VALID,323,VALID,0.726357,
2000-11-25, 00:34:00,VALID,915.957,VALID,0,VALID,95.9031,VALID,0.0169808,VALID,19.6048,VALID,325,VALID,2.15645,
2000-11-25, 00:35:00,VALID,915.955,VALID,0,VALID,95.5585,VALID,0.0509425,VALID,19.6699,VALID,333,VALID,1.19531,
2000-11-25, 00:36:00,VALID,915.944,VALID,0,VALID,95.4619,VALID,0.0339617,VALID,19.6955,VALID,305,VALID,0.599029,
2000-11-25, 00:37:00,VALID,915.977,VALID,0,VALID,95.3093,VALID,0.0509425,VALID,19.7017,VALID,319,VALID,1.47841,
2000-11-25, 00:38:00,VALID,915.937,VALID,0,VALID,95.1898,VALID,0.0679233,VALID,19.6945,VALID,308,VALID,1.06851,
2000-11-25, 00:39:00,VALID,915.923,VALID,0,VALID,94.999,VALID,0.0679233,VALID,19.7044,VALID,311,VALID,0.859776,
2000-11-25, 00:40:00,VALID,915.92,VALID,0,VALID,95.0232,VALID,0.0169808,VALID,19.7079,VALID,297,VALID,0.542969,
2000-11-25, 00:41:00,VALID,915.94,VALID,0,VALID,95.1224,VALID,0.0509425,VALID,19.7047,VALID,289,VALID,0.478413,
2000-11-25, 00:42:00,VALID,915.926,VALID,0,VALID,95.3169,VALID,0.0849042,VALID,19.6918,VALID,321,VALID,1.15182,
2000-11-25, 00:43:00,VALID,915.912,VALID,0,VALID,95.5128,VALID,0.0509425,VALID,19.6366,VALID,324,VALID,0.786892,
2000-11-25, 00:44:00,VALID,915.894,VALID,0,VALID,95.701,VALID,0.0679233,VALID,19.611,VALID,332,VALID,0.715929,
2000-11-25, 00:45:00,VALID,915.86,VALID,0,VALID,95.9833,VALID,0.0169808,VALID,19.5956,VALID,284,VALID,0.298109,
2000-11-25, 00:46:00,VALID,915.835,VALID,0.2,VALID,96.1638,VALID,0.0169808,VALID,19.5593,VALID,273,VALID,1.09312,
2000-11-25, 00:47:00,VALID,915.824,VALID,0,VALID,96.2032,VALID,0.0679233,VALID,19.5367,VALID,325,VALID,1.48906,
2000-11-25, 00:48:00,VALID,915.837,VALID,0,VALID,96.01,VALID,-0.0509425,VALID,19.567,VALID,345,VALID,1.12924,
2000-11-25, 00:49:00,VALID,915.794,VALID,0,VALID,95.9337,VALID,-0.0849042,VALID,19.5933,VALID,314,VALID,0.612253,
2000-11-25, 00:50:00,VALID,915.791,VALID,0,VALID,96.0189,VALID,-0.0679233,VALID,19.5774,VALID,323,VALID,0.597155,
2000-11-25, 00:51:00,VALID,915.765,VALID,0,VALID,96.2299,VALID,-0.0849042,VALID,19.5414,VALID,311,VALID,0.838086,
2000-11-25, 00:52:00,VALID,915.739,VALID,0,VALID,96.5122,VALID,-0.101885,VALID,19.5125,VALID,280,VALID,1.11698,
2000-11-25, 00:53:00,VALID,915.741,VALID,0,VALID,96.1015,VALID,-0.101885,VALID,19.4934,VALID,295,VALID,2.28547,
2000-11-25, 00:54:00,VALID,915.669,VALID,0,VALID,95.3614,VALID,-0.0679233,VALID,19.6224,VALID,267,VALID,0.72496,
2000-11-25, 00:55:00,VALID,915.644,VALID,0,VALID,95.3843,VALID,-0.0849042,VALID,19.6545,VALID,79,VALID,0.418069,
2000-11-25, 00:56:00,VALID,915.643,VALID,0,VALID,95.6437,VALID,-0.0679233,VALID,19.6227,VALID,253,VALID,0.184295,
2000-11-25, 00:57:00,VALID,915.629,VALID,0,VALID,95.94,VALID,-0.0509425,VALID,19.5804,VALID,14,VALID,0.41942,
2000-11-25, 00:58:00,VALID,915.593,VALID,0,VALID,96.1397,VALID,-0.101885,VALID,19.5317,VALID,34,VALID,0.570703,
2000-11-25, 00:59:00,VALID,915.614,VALID,0,VALID,96.338,VALID,-0.0509425,VALID,19.4934,VALID,247,VALID,0.511285,
2000-11-25, 01:00:00,VALID,915.588,VALID,0,VALID,96.6928,VALID,-0.0509425,VALID,19.4606,VALID,166,VALID,0.453559,
2000-11-25, 01:01:00,VALID,915.564,VALID,0,VALID,96.9827,VALID,-0.0169808,VALID,19.4022,VALID,88,VALID,1.65815,
2000-11-25, 01:02:00,VALID,915.517,VALID,0,VALID,97.1353,VALID,-0.0509425,VALID,19.3602,VALID,42,VALID,0.999383,
2000-11-25, 01:03:00,VALID,915.567,VALID,0,VALID,97.2638,VALID,0,VALID,19.3142,VALID,19,VALID,0.125422,
2000-11-25, 01:04:00,VALID,915.56,VALID,0,VALID,97.3858,VALID,-0.0339617,VALID,19.3023,VALID,123,VALID,0,
2000-11-25, 01:05:00,VALID,915.528,VALID,0,VALID,97.5105,VALID,0,VALID,19.2794,VALID,81,VALID,0.615402,
2000-11-25, 01:06:00,VALID,915.484,VALID,0,VALID,97.6936,VALID,-0.0679233,VALID,19.27,VALID,103,VALID,0.811883,
2000-11-25, 01:07:00,VALID,915.489,VALID,0,VALID,97.8767,VALID,-0.0339617,VALID,19.2406,VALID,43,VALID,0.454603,
2000-11-25, 01:08:00,VALID,915.497,VALID,0,VALID,97.9835,VALID,-0.0679233,VALID,19.222,VALID,290,VALID,0.072218,
2000-11-25, 01:09:00,VALID,915.464,VALID,0,VALID,98.07,VALID,-0.0679233,VALID,19.2088,VALID,101,VALID,0.861719,
2000-11-25, 01:10:00,VALID,915.435,VALID,0,VALID,98.1653,VALID,-0.0679233,VALID,19.1954,VALID,96,VALID,0.734992,
2000-11-25, 01:11:00,VALID,915.411,VALID,0,VALID,98.2467,VALID,-0.0509425,VALID,19.1897,VALID,98,VALID,0.522204,
2000-11-25, 01:12:00,VALID,915.384,VALID,0,VALID,98.3052,VALID,-0.0339617,VALID,19.17,VALID,98,VALID,0.344727,
2000-11-25, 01:13:00,VALID,915.385,VALID,0,VALID,98.3421,VALID,-0.101885,VALID,19.1646,VALID,91,VALID,0.860377,
2000-11-25, 01:14:00,VALID,915.387,VALID,0,VALID,98.4031,VALID,-0.0339617,VALID,19.1415,VALID,94,VALID,0.694196,
2000-11-25, 01:15:00,VALID,915.379,VALID,0,VALID,98.4489,VALID,-0.0679233,VALID,19.1308,VALID,82,VALID,0.599609,
2000-11-25, 01:16:00,VALID,915.347,VALID,0,VALID,98.4858,VALID,-0.0339617,VALID,19.128,VALID,97,VALID,1.46398,
2000-11-25, 01:17:00,VALID,915.306,VALID,0,VALID,98.5036,VALID,-0.0339617,VALID,19.1382,VALID,82,VALID,1.61133,
2000-11-25, 01:18:00,VALID,915.246,VALID,0,VALID,98.468,VALID,-0.0169808,VALID,19.1271,VALID,91,VALID,1.82712,
2000-11-25, 01:19:00,VALID,915.188,VALID,0,VALID,98.3917,VALID,0.0509425,VALID,19.1259,VALID,45,VALID,1.31887,
2000-11-25, 01:20:00,VALID,915.149,VALID,0,VALID,98.1819,VALID,0.0679233,VALID,19.2079,VALID,2,VALID,0.819079,
2000-11-25, 01:21:00,VALID,915.121,VALID,0,VALID,98.0077,VALID,0.0679233,VALID,19.2268,VALID,303,VALID,0.817145,
2000-11-25, 01:22:00,VALID,915.116,VALID,0,VALID,97.8919,VALID,0.0509425,VALID,19.227,VALID,275,VALID,0.298177,
2000-11-25, 01:23:00,VALID,915.121,VALID,0,VALID,97.8551,VALID,0.0169808,VALID,19.2175,VALID,249,VALID,0.360431,
2000-11-25, 01:24:00,VALID,915.086,VALID,0,VALID,97.8932,VALID,0.0169808,VALID,19.188,VALID,97,VALID,0.378701,
2000-11-25, 01:25:00,VALID,915.056,VALID,0,VALID,97.8004,VALID,0.0509425,VALID,19.1651,VALID,145,VALID,0.4375,
2000-11-25, 01:26:00,VALID,915.046,VALID,0,VALID,97.7851,VALID,0,VALID,19.1718,VALID,249,VALID,0.141226,
2000-11-25, 01:27:00,VALID,915.058,VALID,0,VALID,97.7927,VALID,0,VALID,19.1952,VALID,265,VALID,0.353674,
2000-11-25, 01:28:00,VALID,915.049,VALID,0,VALID,97.7966,VALID,0,VALID,19.1656,VALID,214,VALID,0.629729,
2000-11-25, 01:29:00,VALID,915.01,VALID,0,VALID,97.7597,VALID,0.0339617,VALID,19.1587,VALID,72,VALID,0.222957,
2000-11-25, 01:30:00,VALID,915.047,VALID,0,VALID,97.7355,VALID,0,VALID,19.1621,VALID,347,VALID,0.0566907,
2000-11-25, 01:31:00,VALID,915.067,VALID,0,VALID,97.7228,VALID,0.0169808,VALID,19.1651,VALID,45,VALID,0.349494,
2000-11-25, 01:32:00,VALID,915.051,VALID,0,VALID,97.7101,VALID,0.0509425,VALID,19.1684,VALID,20,VALID,0.422081,
2000-11-25, 01:33:00,VALID,914.994,VALID,0,VALID,97.7355,VALID,0.0339617,VALID,19.1917,VALID,101,VALID,0.433594,
2000-11-25, 01:34:00,VALID,914.982,VALID,0,VALID,97.7266,VALID,0,VALID,19.1947,VALID,104,VALID,0.792101,
2000-11-25, 01:35:00,VALID,914.944,VALID,0,VALID,97.6758,VALID,0.0679233,VALID,19.1944,VALID,80,VALID,0.489149,
2000-11-25, 01:36:00,VALID,914.976,VALID,0,VALID,97.5168,VALID,0.0509425,VALID,19.2175,VALID,42,VALID,0.431743,
2000-11-25, 01:37:00,VALID,915,VALID,0,VALID,97.3337,VALID,0.0169808,VALID,19.2633,VALID,33,VALID,0.0228041,
2000-11-25, 01:38:00,VALID,914.998,VALID,0,VALID,97.1671,VALID,0.0339617,VALID,19.2658,VALID,33,VALID,0,
2000-11-25, 01:39:00,VALID,915.036,VALID,0,VALID,97.1175,VALID,0.0679233,VALID,19.2822,VALID,33,VALID,0,
2000-11-25, 01:40:00,VALID,915.039,VALID,0,VALID,97.115,VALID,0.0169808,VALID,19.2789,VALID,81,VALID,0.188117,
2000-11-25, 01:41:00,VALID,915.022,VALID,0,VALID,97.2218,VALID,0.0509425,VALID,19.2819,VALID,195,VALID,0.0841346,
2000-11-25, 01:42:00,VALID,915.037,VALID,0,VALID,97.2599,VALID,0.0169808,VALID,19.2824,VALID,274,VALID,0.324805,
2000-11-25, 01:43:00,VALID,915.051,VALID,0.2,VALID,97.1646,VALID,0.0679233,VALID,19.2688,VALID,324,VALID,1.36451,
2000-11-25, 01:44:00,VALID,915.028,VALID,0.2,VALID,96.9166,VALID,0.0509425,VALID,19.3075,VALID,292,VALID,0.931377,
2000-11-25, 01:45:00,VALID,914.991,VALID,0.2,VALID,96.778,VALID,0.0339617,VALID,19.3269,VALID,299,VALID,0.825921,
2000-11-25, 01:46:00,VALID,914.986,VALID,0,VALID,96.7182,VALID,0.0339617,VALID,19.3468,VALID,340,VALID,0.393229,
2000-11-25, 01:47:00,VALID,914.925,VALID,0.2,VALID,96.7259,VALID,0.0509425,VALID,19.3401,VALID,305,VALID,0.357171,
2000-11-25, 01:48:00,VALID,914.827,VALID,0,VALID,96.7551,VALID,0.0679233,VALID,19.3428,VALID,282,VALID,0.420759,
2000-11-25, 01:49:00,VALID,914.904,VALID,0,VALID,96.764,VALID,0.0509425,VALID,19.3364,VALID,350,VALID,0.692383,
2000-11-25, 01:50:00,VALID,914.881,VALID,0,VALID,96.7526,VALID,0.0339617,VALID,19.3329,VALID,296,VALID,0.44987,
2000-11-25, 01:51:00,VALID,914.943,VALID,0,VALID,96.8022,VALID,0.0339617,VALID,19.3398,VALID,291,VALID,0.308811,
2000-11-25, 01:52:00,VALID,914.949,VALID,0,VALID,96.8657,VALID,0.0339617,VALID,19.3269,VALID,280,VALID,0.265414,
2000-11-25, 01:53:00,VALID,914.99,VALID,0,VALID,96.9777,VALID,0.0679233,VALID,19.317,VALID,302,VALID,0.22759,
2000-11-25, 01:54:00,VALID,915.003,VALID,0,VALID,97.1264,VALID,0.0339617,VALID,19.3008,VALID,11,VALID,0.275971,
2000-11-25, 01:55:00,VALID,915.045,VALID,0,VALID,97.2803,VALID,0.0849042,VALID,19.2814,VALID,323,VALID,0.279983,
2000-11-25, 01:56:00,VALID,915.069,VALID,0,VALID,97.4113,VALID,0.0509425,VALID,19.2722,VALID,259,VALID,0.564955,
2000-11-25, 01:57:00,VALID,915.037,VALID,0,VALID,97.5155,VALID,0.0849042,VALID,19.2588,VALID,312,VALID,0.768709,
2000-11-25, 01:58:00,VALID,914.978,VALID,0,VALID,97.4939,VALID,0.0849042,VALID,19.2844,VALID,278,VALID,0.885135,
2000-11-25, 01:59:00,VALID,914.964,VALID,0.2,VALID,97.3477,VALID,0.0339617,VALID,19.3331,VALID,27,VALID,1.01696,
2000-11-25, 02:00:00,VALID,914.943,VALID,0,VALID,97.1938,VALID,0.0679233,VALID,19.3913,VALID,93,VALID,0.724609,
2000-11-25, 02:01:00,VALID,914.964,VALID,0,VALID,97.0616,VALID,0.101885,VALID,19.4074,VALID,53,VALID,0.456414,
2000-11-25, 02:02:00,VALID,915.003,VALID,0,VALID,96.8823,VALID,0.0679233,VALID,19.4171,VALID,45,VALID,0.924137,
2000-11-25, 02:03:00,VALID,914.961,VALID,0,VALID,96.7462,VALID,0.0339617,VALID,19.4437,VALID,22,VALID,0.917773,
2000-11-25, 02:04:00,VALID,914.984,VALID,0,VALID,96.497,VALID,-0.0339617,VALID,19.4671,VALID,31,VALID,1.58934,
2000-11-25, 02:05:00,VALID,914.959,VALID,0,VALID,96.3075,VALID,0,VALID,19.4929,VALID,312,VALID,0.456696,
2000-11-25, 02:06:00,VALID,914.948,VALID,0,VALID,96.2007,VALID,0,VALID,19.5026,VALID,49,VALID,0.771484,
2000-11-25, 02:07:00,VALID,914.932,VALID,0,VALID,96.0697,VALID,0,VALID,19.525,VALID,8,VALID,1.46745,
2000-11-25, 02:08:00,VALID,914.951,VALID,0,VALID,96.085,VALID,-0.0169808,VALID,19.5056,VALID,291,VALID,0.95855,
2000-11-25, 02:09:00,VALID,914.948,VALID,0,VALID,96.1409,VALID,-0.0509425,VALID,19.4994,VALID,323,VALID,0.608173,
2000-11-25, 02:10:00,VALID,914.928,VALID,0,VALID,96.0926,VALID,-0.0339617,VALID,19.4894,VALID,345,VALID,0.733964,
2000-11-25, 02:11:00,VALID,914.94,VALID,0,VALID,95.9794,VALID,0,VALID,19.5091,VALID,358,VALID,1.43709,
2000-11-25, 02:12:00,VALID,914.904,VALID,0,VALID,95.5662,VALID,-0.0169808,VALID,19.5575,VALID,332,VALID,1.35367,
2000-11-25, 02:13:00,VALID,914.878,VALID,0,VALID,95.2724,VALID,-0.0339617,VALID,19.5896,VALID,305,VALID,1.14844,
2000-11-25, 02:14:00,VALID,914.89,VALID,0,VALID,95.0563,VALID,-0.0169808,VALID,19.6187,VALID,320,VALID,1.24599,
2000-11-25, 02:15:00,VALID,914.865,VALID,0,VALID,95.0219,VALID,0,VALID,19.6346,VALID,324,VALID,0.931743,
2000-11-25, 02:16:00,VALID,914.865,VALID,0,VALID,95.3004,VALID,-0.0169808,VALID,19.6184,VALID,30,VALID,0.575721,
2000-11-25, 02:17:00,VALID,914.861,VALID,0,VALID,95.5077,VALID,-0.0169808,VALID,19.5928,VALID,6,VALID,0.392228,
2000-11-25, 02:18:00,VALID,914.85,VALID,0,VALID,95.6259,VALID,-0.0169808,VALID,19.5605,VALID,50,VALID,0.442356,
2000-11-25, 02:19:00,VALID,914.809,VALID,0,VALID,95.3373,VALID,-0.0339617,VALID,19.5409,VALID,278,VALID,1.40584,
2000-11-25, 02:20:00,VALID,914.737,VALID,0,VALID,95.3958,VALID,0,VALID,19.5767,VALID,59,VALID,0.619591,
2000-11-25, 02:21:00,VALID,914.788,VALID,0,VALID,95.4492,VALID,0,VALID,19.573,VALID,86,VALID,0.263421,
2000-11-25, 02:22:00,VALID,914.762,VALID,0,VALID,95.5674,VALID,0,VALID,19.5672,VALID,87,VALID,0.830882,
2000-11-25, 02:23:00,VALID,914.725,VALID,0,VALID,95.5331,VALID,-0.0169808,VALID,19.5414,VALID,358,VALID,1.29544,
2000-11-25, 02:24:00,VALID,914.719,VALID,0,VALID,95.0117,VALID,0,VALID,19.5866,VALID,276,VALID,1.35663,
2000-11-25, 02:25:00,VALID,914.674,VALID,0,VALID,94.5883,VALID,-0.0339617,VALID,19.6286,VALID,302,VALID,1.43338,
2000-11-25, 02:26:00,VALID,914.717,VALID,0,VALID,94.3378,VALID,-0.0509425,VALID,19.6838,VALID,36,VALID,0.605903,
2000-11-25, 02:27:00,VALID,914.716,VALID,0,VALID,94.3836,VALID,-0.0509425,VALID,19.6967,VALID,312,VALID,0.47574,
2000-11-25, 02:28:00,VALID,914.717,VALID,0,VALID,94.4268,VALID,0,VALID,19.6734,VALID,300,VALID,0.685811,
2000-11-25, 02:29:00,VALID,914.693,VALID,0,VALID,94.573,VALID,0,VALID,19.6609,VALID,294,VALID,0.222545,
2000-11-25, 02:30:00,VALID,914.642,VALID,0,VALID,94.8019,VALID,-0.0169808,VALID,19.6314,VALID,32,VALID,0.686161,
2000-11-25, 02:31:00,VALID,914.593,VALID,0,VALID,95.2368,VALID,-0.0339617,VALID,19.6125,VALID,356,VALID,0.636308,
2000-11-25, 02:32:00,VALID,914.615,VALID,0,VALID,95.1961,VALID,-0.0169808,VALID,19.5667,VALID,276,VALID,1.18029,
2000-11-25, 02:33:00,VALID,914.588,VALID,0,VALID,94.9431,VALID,-0.0339617,VALID,19.6095,VALID,257,VALID,1.13242,
2000-11-25, 02:34:00,VALID,914.57,VALID,0,VALID,94.9583,VALID,-0.0679233,VALID,19.6222,VALID,327,VALID,0.678043,
2000-11-25, 02:35:00,VALID,914.572,VALID,0,VALID,95.2228,VALID,0,VALID,19.6323,VALID,51,VALID,0.627745,
2000-11-25, 02:36:00,VALID,914.547,VALID,0,VALID,94.9838,VALID,-0.0169808,VALID,19.6154,VALID,25,VALID,0.913862,
2000-11-25, 02:37:00,VALID,914.556,VALID,0,VALID,95.2864,VALID,0.0169808,VALID,19.5829,VALID,37,VALID,0.640625,
2000-11-25, 02:38:00,VALID,914.551,VALID,0,VALID,95.6628,VALID,-0.0169808,VALID,19.528,VALID,49,VALID,0.759415,
2000-11-25, 02:39:00,VALID,914.503,VALID,0,VALID,96.0723,VALID,0,VALID,19.4534,VALID,343,VALID,0.416518,
2000-11-25, 02:40:00,VALID,914.509,VALID,0,VALID,96.4067,VALID,-0.0169808,VALID,19.4151,VALID,272,VALID,0.467969,
2000-11-25, 02:41:00,VALID,914.532,VALID,0,VALID,96.6725,VALID,-0.0339617,VALID,19.3798,VALID,299,VALID,0.165365,
2000-11-25, 02:42:00,VALID,914.492,VALID,0,VALID,96.8568,VALID,-0.0169808,VALID,19.3383,VALID,279,VALID,0.0833333,
2000-11-25, 02:43:00,VALID,914.493,VALID,0,VALID,96.9637,VALID,-0.0509425,VALID,19.3251,VALID,327,VALID,0.554476,
2000-11-25, 02:44:00,VALID,914.486,VALID,0,VALID,97.0641,VALID,-0.0849042,VALID,19.3445,VALID,329,VALID,0.350535,
2000-11-25, 02:45:00,VALID,914.475,VALID,0,VALID,97.0501,VALID,-0.0509425,VALID,19.3341,VALID,23,VALID,0.556799,
2000-11-25, 02:46:00,VALID,914.476,VALID,0,VALID,96.6877,VALID,-0.0169808,VALID,19.4121,VALID,312,VALID,1.42568,
2000-11-25, 02:47:00,VALID,914.46,VALID,0,VALID,96.0837,VALID,-0.0679233,VALID,19.5215,VALID,269,VALID,0.664286,
2000-11-25, 02:48:00,VALID,914.415,VALID,0,VALID,95.9019,VALID,-0.0169808,VALID,19.5478,VALID,314,VALID,0.140419,
2000-11-25, 02:49:00,VALID,914.363,VALID,0,VALID,95.8281,VALID,-0.0849042,VALID,19.5478,VALID,90,VALID,1.3049,
2000-11-25, 02:50:00,VALID,914.304,VALID,0,VALID,95.9871,VALID,-0.101885,VALID,19.5384,VALID,91,VALID,1.71437,
2000-11-25, 02:51:00,VALID,914.258,VALID,0,VALID,96.132,VALID,-0.0679233,VALID,19.4996,VALID,93,VALID,1.29863,
2000-11-25, 02:52:00,VALID,914.282,VALID,0,VALID,96.3266,VALID,-0.0849042,VALID,19.4673,VALID,25,VALID,0.48787,
2000-11-25, 02:53:00,VALID,914.336,VALID,0,VALID,96.6343,VALID,-0.0849042,VALID,19.4323,VALID,311,VALID,0.85773,
2000-11-25, 02:54:00,VALID,914.384,VALID,0,VALID,96.9827,VALID,-0.0509425,VALID,19.354,VALID,330,VALID,0.529297,
2000-11-25, 02:55:00,VALID,914.418,VALID,0,VALID,97.3324,VALID,-0.0679233,VALID,19.3055,VALID,83,VALID,1.22155,
2000-11-25, 02:56:00,VALID,914.419,VALID,0,VALID,96.8568,VALID,-0.0339617,VALID,19.3604,VALID,14,VALID,1.6933,
2000-11-25, 02:57:00,VALID,914.389,VALID,0,VALID,95.9082,VALID,-0.0849042,VALID,19.5386,VALID,339,VALID,0.666406,
2000-11-25, 02:58:00,VALID,914.393,VALID,0,VALID,95.6717,VALID,-0.0849042,VALID,19.564,VALID,300,VALID,0.549479,
2000-11-25, 02:59:00,VALID,914.383,VALID,0,VALID,95.8853,VALID,-0.0849042,VALID,19.5449,VALID,356,VALID,0.206814,
2000-11-25, 03:00:00,VALID,914.352,VALID,0,VALID,96.188,VALID,-0.0679233,VALID,19.4899,VALID,90,VALID,1.04688,
2000-11-25, 03:01:00,VALID,914.296,VALID,0,VALID,96.4321,VALID,-0.0849042,VALID,19.4412,VALID,78,VALID,0.959087,
2000-11-25, 03:02:00,VALID,914.278,VALID,0,VALID,96.6114,VALID,-0.0849042,VALID,19.3997,VALID,81,VALID,0.910567,
2000-11-25, 03:03:00,VALID,914.257,VALID,0,VALID,96.8073,VALID,-0.0679233,VALID,19.3736,VALID,78,VALID,0.45038,
2000-11-25, 03:04:00,VALID,914.262,VALID,0,VALID,96.9331,VALID,-0.0509425,VALID,19.341,VALID,51,VALID,0.41862,
2000-11-25, 03:05:00,VALID,914.272,VALID,0.2,VALID,96.9764,VALID,-0.0849042,VALID,19.3249,VALID,113,VALID,0.116765,
2000-11-25, 03:06:00,VALID,914.283,VALID,0,VALID,97.0463,VALID,-0.0849042,VALID,19.305,VALID,45,VALID,0.0918997,
2000-11-25, 03:07:00,VALID,914.287,VALID,0,VALID,97.1213,VALID,-0.0679233,VALID,19.3055,VALID,70,VALID,0.205529,
2000-11-25, 03:08:00,VALID,914.293,VALID,0.2,VALID,97.2027,VALID,-0.0849042,VALID,19.2896,VALID,56,VALID,0,
2000-11-25, 03:09:00,VALID,914.311,VALID,0,VALID,97.2727,VALID,-0.0679233,VALID,19.2831,VALID,10,VALID,0.113809,
2000-11-25, 03:10:00,VALID,914.377,VALID,0.2,VALID,97.3998,VALID,-0.101885,VALID,19.2799,VALID,277,VALID,0.371299,
2000-11-25, 03:11:00,VALID,914.401,VALID,0.2,VALID,97.5422,VALID,-0.0849042,VALID,19.257,VALID,315,VALID,0.457532,
2000-11-25, 03:12:00,VALID,914.413,VALID,0.2,VALID,97.7215,VALID,-0.101885,VALID,19.2284,VALID,261,VALID,0.061899,
2000-11-25, 03:13:00,VALID,914.419,VALID,0.2,VALID,97.897,VALID,-0.0679233,VALID,19.2053,VALID,283,VALID,0.0248162,
2000-11-25, 03:14:00,VALID,914.417,VALID,0.4,VALID,98.0547,VALID,-0.101885,VALID,19.1994,VALID,71,VALID,0.4669,
2000-11-25, 03:15:00,VALID,914.343,VALID,0.4,VALID,98.1869,VALID,-0.101885,VALID,19.1862,VALID,100,VALID,0.50739,
2000-11-25, 03:16:00,VALID,914.288,VALID,0.2,VALID,98.2836,VALID,-0.101885,VALID,19.1604,VALID,87,VALID,1.14106,
2000-11-25, 03:17:00,VALID,914.28,VALID,0.2,VALID,98.379,VALID,-0.0679233,VALID,19.1507,VALID,83,VALID,1.01497,
2000-11-25, 03:18:00,VALID,914.239,VALID,0,VALID,98.4578,VALID,-0.0849042,VALID,19.1276,VALID,96,VALID,1.43215,
2000-11-25, 03:19:00,VALID,914.206,VALID,0,VALID,98.5214,VALID,-0.0679233,VALID,19.1216,VALID,98,VALID,1.89464,
2000-11-25, 03:20:00,VALID,914.219,VALID,0.2,VALID,98.5761,VALID,-0.0849042,VALID,19.1151,VALID,93,VALID,1.06116,
2000-11-25, 03:21:00,VALID,914.257,VALID,0,VALID,98.6002,VALID,-0.0679233,VALID,19.102,VALID,136,VALID,0.522321,
2000-11-25, 03:22:00,VALID,914.295,VALID,0.2,VALID,98.646,VALID,-0.0849042,VALID,19.1022,VALID,283,VALID,0.508635,
2000-11-25, 03:23:00,VALID,914.319,VALID,0,VALID,98.6638,VALID,-0.101885,VALID,19.1054,VALID,260,VALID,0.6248,
2000-11-25, 03:24:00,VALID,914.283,VALID,0.2,VALID,98.6778,VALID,-0.0679233,VALID,19.0923,VALID,50,VALID,0.950586,
2000-11-25, 03:25:00,VALID,914.289,VALID,0,VALID,98.6752,VALID,-0.0849042,VALID,19.0828,VALID,302,VALID,0.909128,
2000-11-25, 03:26:00,VALID,914.332,VALID,0.2,VALID,98.6867,VALID,-0.0679233,VALID,19.0888,VALID,287,VALID,1.11592,
2000-11-25, 03:27:00,VALID,914.314,VALID,0.2,VALID,98.693,VALID,-0.0509425,VALID,19.1022,VALID,278,VALID,0.663862,
2000-11-25, 03:28:00,VALID,914.264,VALID,0,VALID,98.6803,VALID,-0.0679233,VALID,19.09,VALID,267,VALID,0.226563,
2000-11-25, 03:29:00,VALID,914.237,VALID,0,VALID,98.6613,VALID,-0.0509425,VALID,19.0699,VALID,345,VALID,0.83734,
2000-11-25, 03:30:00,VALID,914.197,VALID,0.2,VALID,98.6129,VALID,-0.0849042,VALID,19.0694,VALID,20,VALID,0.284152,